Location: Newark
(28.5667°N, 77.2000°E)
Time: 04:52:15
(UTC+00:00)

LightSail 2 - Visible Passes

Search period start: 15 October 2019 00:00
Search period end: 25 October 2019 00:00
Orbit: 707 x 723 km, 24.0° (Epoch: 13 October)

Date Brightness Start Highest point End Pass type
(mag) Time Alt. Az. Time Alt. Az. Time Alt. Az.
15 Oct 5.5 13:53:18 10° WSW 13:58:20 52° S 13:59:27 43° SE visible
16 Oct 5.7 12:55:49 10° WSW 13:00:50 51° S 13:05:27 12° ESE visible
16 Oct 6.6 14:41:17 10° W 14:44:27 32° SW 14:44:27 32° SW visible
17 Oct 5.7 13:43:43 10° W 13:48:42 48° S 13:50:27 34° SE visible
18 Oct 5.8 12:46:11 10° WSW 12:51:10 51° S 12:56:11 10° ESE visible
18 Oct 6.5 14:31:49 10° WSW 14:35:29 31° SW 14:35:29 31° SW visible
19 Oct 6.1 13:34:10 10° W 13:38:58 40° S 13:41:32 24° SE visible
19 Oct 8.1 15:20:30 10° WSW 15:20:33 10° WSW 15:20:33 10° WSW visible
20 Oct 6.0 12:36:33 10° W 12:41:27 45° S 12:46:23 10° ESE visible
20 Oct 6.8 14:22:31 10° WSW 14:26:39 24° SSW 14:26:39 24° SSW visible
21 Oct 6.6 13:24:42 10° WSW 13:29:11 30° SSW 13:32:49 14° SE visible
22 Oct 7.3 14:13:40 10° WSW 14:16:47 16° SSW 14:18:03 15° S visible
23 Oct 7.2 13:15:30 10° WSW 13:19:19 21° SSW 13:23:08 10° SSE visible
